User: anonymous   Login
Location: Lancaster
(34.6980°N, 118.1360°W)
Time: 11:42:16
(UTC-08:00)
Language:

Hubble Space Telescope - Orbit

View from above orbital plane
View from above orbital plane
View from above satellite
View from above satellite

Ground track
Ground track

The orbit data is extracted from the following two-line orbital elements,

1 20580U 90037B   18047.81928258 +.00000473 +00000-0 +18031-4 0  9998
2 20580 028.4686 190.7731 0002546 287.6655 193.4078 15.08979806327181
Epoch (UTC): 16 February 2018 19:39:46
Eccentricity: 0.0002546
inclination: 28.4686°
perigee height: 537 km
apogee height: 541 km
right ascension of ascending node: 190.7731°
argument of perigee: 287.6655°
revolutions per day: 15.08979806
mean anomaly at epoch: 193.4078°
orbit number at epoch: 32718

The dashed part of the orbit path shows where the satellite is in the earth's shadow,  

DLR